Regional Weather Roundup
Issued by NWS

Home | Current Version | Previous Version | Graphics & Text | Print | Product List | Glossary On
Versions: 1 2 3 4 5 6 7 8 9 10 11 12 13 14 15 16 17 18 19 20 21 22 23 24 25 26 27 28 29 30 31 32 33 34 35 36 37 38 39 40 41 42 43 44 45 46 47 48 49 50
000
ASUS43 KDMX 091606
RWRIA

WEATHER ROUNDUP FOR IOWA
NATIONAL WEATHER SERVICE DES MOINES IA
1000 AM CST FRI DEC 09 2016

NOTE: "FAIR" INDICATES FEW OR NO CLOUDS BELOW 12,000 FEET WITH NO
SIGNIFICANT WEATHER AND/OR OBSTRUCTIONS TO VISIBILITY.

* - THESE STATIONS ARE NOT NWS STATIONS...THUS NOT UNDER NWS
QUALITY CONTROL.  THEY ALSO DO NOT REPORT WEATHER SUCH
AS PRECIPITATION OR FOG.

IAZ001>003-012>014-020>022-031>034-043>046-091700-
   NORTHWEST IOWA

CITY           SKY/WX    TMP DP  RH WIND       PRES   REMARKS
CARROLL *      CLOUDY    10   7  85 CALM      30.61R
CHEROKEE *     CLOUDY     7   4  87 CALM      30.60S
DENISON *      MOSUNNY   10   7  85 CALM      30.59R
LE MARS *      CLOUDY     7   1  78 CALM      30.62S
ORANGE CITY *  MOSUNNY    7   3  85 CALM      30.57F
SHELDON *      CLOUDY     5   3  92 W6        30.57R WCI  -6
SIOUX CITY     MOSUNNY   10   3  73 CALM      30.62F
SPENCER        CLOUDY     8   4  83 W8        30.58S WCI  -4
STORM LAKE *   CLOUDY     7   3  85 W7        30.58R WCI  -5
$$

IAZ055>058-069>071-079>083-090>094-091700-
   SOUTHWEST IOWA

CITY           SKY/WX    TMP DP  RH WIND       PRES   REMARKS
ATLANTIC *     SUNNY     12   7  79 CALM      30.61S
AUDUBON *      MOSUNNY   10   7  85 CALM      30.59S
CLARINDA *     CLOUDY    14   9  79 CALM      30.67R
COUNCIL BLFS * MOSUNNY   12   9  85 CALM      30.62R
CRESTON *      SUNNY     14   9  79 CALM      30.62R
HARLAN  *      MOSUNNY   12   7  79 CALM      30.66R
LAMONI         SUNNY     15   9  76 N3        30.61R
RED OAK *      MOSUNNY   14   9  79 CALM      30.64S
SHENANDOAH *   CLOUDY    14   9  79 CALM      30.66R
$$

IAZ047>049-059>061-072>074-084-091700-
   CENTRAL IOWA

CITY           SKY/WX    TMP DP  RH WIND       PRES   REMARKS
AMES           MOSUNNY   14   9  80 NW6       30.62S WCI   5
ANKENY *       CLOUDY    14   9  79 NW6       30.64F WCI   5
BOONE *        MOSUNNY   10   7  85 CALM      30.59F
CHARITON *     MOSUNNY   14  10  85 NW5       30.62S WCI   6
DES MOINES     CLOUDY    16   7  67 CALM      30.62F
GRINNELL*      SUNNY     15  11  84 W6        30.62R WCI   7
KNOXVILLE *    SUNNY     14   9  79 W7        30.62S WCI   4
MARSHALLTOWN   MOSUNNY   15  10  80 W10       30.61R WCI   2
NEWTON *       SUNNY     16  10  79 NW6       30.62R WCI   7
PELLA *        SUNNY     18  11  74 NW6       30.64S WCI   9
PERRY *          N/A     12   9  87 W5        30.63S WCI   5
$$

IAZ004>006-015-016-023>025-035-036-091700-
   NORTH CENTRAL IOWA

CITY           SKY/WX    TMP DP  RH WIND       PRES   REMARKS
ALGONA *       MOSUNNY   10   7  85 NW6       30.58R WCI   1
CLARION *      MOSUNNY   12   7  79 W7        30.60R WCI   2
ESTHERVILLE    CLOUDY     7   4  87 NW6       30.57R WCI  -3
FORT DODGE *   MOSUNNY   10   5  79 W5        30.61S WCI   2
MASON CITY     SUNNY     14  10  84 W7        30.59R WCI   4
FOREST CITY *    N/A     16  10  79 NW7       30.57S WCI   6
WEBSTER CITY * MOSUNNY   12   9  85 W6        30.59S WCI   3
IOWA FALLS *     N/A     15  10  82 W7        30.60R WCI   5
$$

IAZ007>011-017>019-026>030-037>042-050>054-066-091700-
   NORTHEAST IOWA

CITY           SKY/WX    TMP DP  RH WIND       PRES   REMARKS
CEDAR RAPIDS   SUNNY     16  12  84 NW10      30.60R WCI   4
CHARLES CITY * CLOUDY    12   9  85 NW6       30.58R WCI   3
CLINTON *      SUNNY     20  14  77 W10       30.60R WCI   9
DECORAH *      SUNNY     14  10  85 NW7       30.55R WCI   4
DUBUQUE        SUNNY     17  11  77 NW6       30.56R WCI   9
MONTICELLO *   SUNNY     16  10  79 W7        30.60R WCI   6
OELWEIN *      PTSUNNY   12  10  92 NW12      30.59R WCI  -2
WATERLOO       SUNNY     16   9  74 NW9       30.60R WCI   4
$$

IAZ064-065-067-068-078-091700-
   EAST CENTRAL IOWA

CITY           SKY/WX    TMP DP  RH WIND       PRES   REMARKS
DAVENPORT      SUNNY     19  12  74 W9        30.61R WCI   8
IOWA CITY      MOSUNNY   19  11  70 W10       30.64R WCI   7
MUSCATINE *    PTSUNNY   21  12  68 NW10      30.64S WCI  10
QUAD CITIES    SUNNY     21  11  65 W9        30.61R WCI  11
$$

IAZ062-063-075>077-085>089-095>099-091700-
   SOUTHEAST IOWA

CITY           SKY/WX    TMP DP  RH WIND       PRES   REMARKS
BURLINGTON     PTSUNNY   21  12  68 NW9       30.63R WCI  11
FAIRFIELD *    PTSUNNY   19   9  63 NW9       30.62S WCI   9
FORT MADISON * FLURRIES  19  12  73 NW3       30.63R
KEOKUK *       FLURRIES  21  12  68 NW7       30.63R WCI  13
OSKALOOSA *      N/A     17  11  79 NW8       30.63F WCI   6
CENTERVILLE *    N/A     16  10  79 CALM      30.64R
OTTUMWA        SUNNY     17   9  70 W7        30.63S WCI   8
WASHINGTON *   MOSUNNY   19  12  73 NW8G14    30.64R WCI   9
$$

ABBREVIATIONS USED IN REMARKS
   TC - TEMPERATURES IN CELSIUS
  WCI - WIND CHILL INDEX
   HX - HEAT INDEX
  VSB - VISIBILITY
$$




USA.gov is the U.S. government's official web portal to all federal, state and local government web resources and services.